Miscellaneous Local Product
Issued by NWS Hastings, NE

Home | Current Version | Previous Version | Text Only | Print | Product List | Glossary On
Versions: 1 2 3 4 5 6 7 8 9 10 11 12 13 14 15 16 17 18 19 20 21 22 23 24 25 26 27 28 29 30 31 32 33 34 35 36 37 38 39 40 41 42 43 44 45 46 47 48 49 50
000
AXUS43 KGID 190502
MISGRI

GID CWA HOURLY WEATHER ROUNDUP
NATIONAL WEATHER SERVICE HASTINGS NE
1200 AM CDT SUN APR 19 2015

NOTE: "FAIR" INDICATES FEW OR NO CLOUDS BELOW 12,000 FEET WITH NO
SIGNIFICANT WEATHER AND/OR OBSTRUCTIONS TO VISIBILITY.

...SOUTH CENTRAL NEBRASKA...

CITY           SKY/WX    TMP DP  RH WIND       PRES   REMARKS
GRAND ISLAND   CLOUDY    54  47  77 S9        29.79F
HASTINGS       CLOUDY    53  48  83 S6        29.78F
KEARNEY        CLOUDY    54  46  76 N3        29.77F
ORD            CLOUDY    54  46  74 W18G26    29.77F
YORK           CLOUDY    55  50  82 W6        29.80F
AURORA         CLOUDY    54  51  89 SW7       29.79F
LEXINGTON      CLOUDY    52  49  87 W8        29.81F
HOLDREGE       CLOUDY    52  47  82 NE10      29.81S
HEBRON         LGT RAIN  54  50  88 NE7       29.77F

...NEBRASKA PANHANDLE...

CITY           SKY/WX    TMP DP  RH WIND       PRES   REMARKS
CHADRON        LGT RAIN  46  42  86 N12       29.97R
ALLIANCE       MOCLDY    45  42  89 NW7       29.92F
SCOTTSBLUFF    CLOUDY    44  32  62 NW10      29.97R
SIDNEY         LGT RAIN  45  42  89 N21       29.92R

...WESTERN AND NORTH CENTRAL NEBRASKA...

CITY           SKY/WX    TMP DP  RH WIND       PRES   REMARKS
VALENTINE      CLOUDY    50  45  83 NW5       29.88R
AINSWORTH      CLOUDY    53  51  94 N10       29.85F
ONEILL         CLOUDY    55  55  99 N6        29.80F FOG
BROKEN BOW     CLOUDY    52  47  83 W16       29.79F
IMPERIAL       CLOUDY    49  44  83 N12       29.86R
NORTH PLATTE   RAIN      49  46  90 N10       29.86S
MCCOOK         CLOUDY    54  47  77 E12       29.83R

...EASTERN NEBRASKA...

CITY           SKY/WX    TMP DP  RH WIND       PRES   REMARKS
NORFOLK        NOT AVBL
SO SIOUX CITY  CLOUDY    55  52  89 E5        29.80F
TEKAMAH        CLOUDY    54  53  97 SE7       29.80F FOG
COLUMBUS       CLOUDY    54  46  76 S3        29.81S
ALBION         MOCLDY    56  52  86 SE8       29.78F
OMAHA EPPLEY   MOCLDY    56  55  97 CALM      29.81F
OFFUTT AFB     CLOUDY    56  56  99 S3        29.80F
MILLARD        MOCLDY    58  56  92 CALM      29.81F
LINCOLN        CLOUDY    59  51  75 SW5       29.80F
NEBRASKA CITY  FOG       56  56  99 CALM      29.81S VSB 1/2
BEATRICE       CLOUDY    55  53  93 W5        29.82S
FALLS CITY     CLOUDY    57  55  93 S6        29.80F

...NORTHERN KANSAS...

CITY           SKY/WX    TMP DP  RH WIND       PRES   REMARKS
GOODLAND       CLOUDY    47  44  90 N10       29.79F
HILL CITY      CLOUDY    51  48  89 NE8       29.80R
NORTON         CLOUDY    54  46  76 CALM      29.81F
PHILLIPSBURG   MOCLDY    55  50  82 CALM      29.81F
SMITH CENTER   CLOUDY    52  48  87 E8        29.81F
BELOIT         MOCLDY    52  50  93 W7        29.81R
HAYS           CLOUDY    52  43  71 E7        29.77F
RUSSELL        CLOUDY    52  48  86 NE7       29.74F
CONCORDIA      CLOUDY    53  52  96 SE3       29.79F
SALINA         CLOUDY    54  51  90 S5        29.81R
TOPEKA         CLOUDY    57  52  83 W7        29.83S



USA.gov is the U.S. government's official web portal to all federal, state and local government web resources and services.